Woudrichem, Netherlands
Current Conditions -  °F | °C
As of 3:03 PM on Thursday 30 Oct 2014 (Local Time) from EHGR Reporting Station
Overcast Overcast  
Wind Chill: 63°   Ceiling: 14000
Heat Index: 63°   Visibility: 6mi
Dew Point: 57°   Wind: 9mph
Humidity: 82%   Direction: 190°S
Pressure: 30.15"   Gusts: NA
Location:  51.82°N, 5°E
Report Text: EHGR 301403Z AUTO 19008KT 9999 FEW096 OVC140 17/14 Q1021 BLU
Loading
Personal Weather Stations






























Interactive Weather Map
Tropical Storm Tracking
New forecast layout! Learn more

10-Day Weather Forecast

Advertisements
Track Severe Weather on mobile